[[{"header":{"parameterUnit":"m.s-1","parameterCategory":2,"la1":30.2992,"la2":30.254,"lo1":-89.0895,"lo2":-89.0443,"dy":0.0025,"dx":0.0025,"nx":19,"ny":19,"refTime":"2026-05-21T03:00:00:Z","depth":"0","parameterNumber":2,"parameterNumberName":"U-component_of_CURRENTS"},"data":[0,0,0,-0.1178,-0.118,-0.1272,-0.1272,-0.1299,-0.1299,0,0,0,0,0,0,0,0,0,0,0,-0.114,-0.1141,-0.1178,-0.118,-0.1272,-0.1272,-0.1299,-0.1299,0,0,0,0,0,0,0,0,0,0,0,-0.114,-0.114,-0.1141,-0.1181,-0.1272,-0.1272,-0.1299,-0.1252,0,0,0,0,0,0,0,0,0,0,-0.1174,-0.1151,-0.114,-0.1141,-0.1181,-0.1272,-0.1272,-0.125,-0.1254,-0.1232,0,-0.1248,0,-0.1276,-0.1299,-0.1299,0,0,0,-0.1178,-0.1148,-0.1175,-0.1141,-0.1182,-0.1272,-0.123,-0.1253,-0.1258,-0.1237,-0.1249,-0.1251,-0.1276,-0.1299,-0.1299,-0.1372,-0.1372,0,0,-0.1173,-0.1152,-0.1172,-0.1178,-0.1206,-0.1227,-0.1233,-0.1257,-0.1258,-0.1249,-0.1252,-0.1277,-0.1299,-0.1299,-0.1371,-0.1372,0,0,0,-0.116,-0.1149,-0.1178,-0.1176,-0.1201,-0.123,-0.1236,-0.1257,-0.1267,-0.1252,-0.1277,-0.1299,-0.1299,-0.137,-0.1371,-0.1408,0,0,0,-0.1157,-0.1142,-0.1175,-0.1163,-0.1201,-0.1243,-0.1235,-0.1266,-0.127,-0.1277,-0.1299,-0.1299,-0.1369,-0.1371,-0.1405,-0.1409,0,0,0,-0.1136,-0.1139,-0.1151,-0.1162,-0.1204,-0.1243,-0.1256,-0.1268,-0.1284,-0.1299,-0.1299,-0.1368,-0.137,-0.1403,-0.1406,-0.1433,0,0,0,-0.111,-0.114,-0.115,-0.1199,-0.1203,-0.1292,-0.1257,-0.1307,-0.1325,-0.1299,-0.1369,-0.1371,-0.1402,-0.1403,-0.1431,-0.142,-0.1429,0,0,-0.1137,-0.1142,-0.1176,-0.1188,-0.1273,-0.1279,-0.1364,-0.1361,-0.1345,-0.1351,-0.1354,-0.1406,-0.1405,-0.1433,-0.1531,-0.1537,0,0,0,-0.1178,-0.1194,-0.1227,-0.1275,-0.1336,-0.1389,-0.1407,-0.1414,-0.143,-0.1366,-0.1435,-0.1434,-0.1449,-0.1439,-0.1445,-0.135,-0.138,-0.138,-0.1379,-0.1171,-0.1217,-0.1272,-0.1335,-0.1393,-0.1464,-0.1504,-0.1516,-0.1488,-0.1507,-0.1486,-0.1561,-0.1553,-0.1556,-0.146,-0.1518,-0.1518,-0.1518,-0.1518,-0.1196,-0.1221,-0.1287,-0.1347,-0.1419,-0.148,-0.1567,-0.1568,-0.1602,-0.1565,-0.1578,-0.1506,-0.1564,-0.146,-0.1521,-0.1521,-0.152,-0.152,-0.152,-0.1168,-0.1186,-0.1224,-0.1301,-0.1379,-0.1467,-0.1523,-0.1586,-0.1619,-0.1643,-0.1613,-0.1612,-0.1498,-0.1638,-0.1638,-0.1638,-0.1638,-0.1638,-0.1638,-0.1111,-0.1157,-0.1168,-0.1253,-0.1287,-0.1363,-0.1484,-0.1529,-0.1615,-0.1652,-0.1652,-0.1521,-0.1597,-0.1567,-0.1641,-0.1641,-0.164,-0.164,-0.164,-0.1071,-0.1071,-0.1089,-0.1112,-0.1193,-0.1201,-0.135,-0.1464,-0.1549,-0.1591,-0.1565,-0.1667,-0.1649,-0.1644,-0.1617,-0.1699,-0.1699,-0.1699,-0.1699,-0.1012,-0.1025,-0.1015,-0.103,-0.1068,-0.1129,-0.1112,-0.1274,-0.1457,-0.152,-0.1536,-0.1494,-0.1495,-0.1465,-0.1465,-0.1432,-0.1465,-0.1465,-0.1464,-0.0969,-0.0976,-0.0943,-0.0967,-0.1005,-0.1005,-0.0941,-0.1039,-0.1334,-0.1444,-0.1409,-0.1418,-0.1344,-0.1354,-0.1297,-0.1303,-0.1246,0,0]},{"header":{"parameterUnit":"m.s-1","parameterCategory":2,"la1":30.2992,"la2":30.254,"lo1":-89.0895,"lo2":-89.0443,"dy":0.0025,"dx":0.0025,"nx":19,"ny":19,"refTime":"2026-05-21T03:00:00:Z","depth":"0","parameterNumber":3,"parameterNumberName":"V-component_of_CURRENTS"},"data":[0,0,0,-0.0374,-0.0373,-0.029,-0.0289,-0.0112,-0.011,0,0,0,0,0,0,0,0,0,0,0,-0.0397,-0.0397,-0.0374,-0.0373,-0.029,-0.0289,-0.0112,-0.011,0,0,0,0,0,0,0,0,0,0,0,-0.0397,-0.0397,-0.0397,-0.0373,-0.029,-0.0289,-0.0112,-0.0186,0,0,0,0,0,0,0,0,0,0,-0.0273,-0.0309,-0.0397,-0.0397,-0.0373,-0.029,-0.0289,-0.019,-0.0181,-0.0138,0,-0.0142,0,-0.0135,-0.01,-0.0099,0,0,0,-0.0344,-0.0316,-0.0306,-0.0397,-0.0372,-0.0291,-0.0319,-0.0186,-0.0176,-0.0127,-0.014,-0.0134,-0.0132,-0.0099,-0.0098,-0.0018,-0.0018,0,0,-0.0349,-0.0362,-0.0313,-0.0301,-0.037,-0.0322,-0.0317,-0.018,-0.0169,-0.0139,-0.013,-0.0129,-0.0097,-0.0096,-0.0017,-0.0018,0,0,0,-0.0382,-0.0365,-0.0359,-0.0307,-0.0305,-0.0321,-0.0315,-0.0175,-0.0177,-0.0128,-0.0127,-0.0097,-0.0095,-0.0017,-0.0017,-0.0125,0,0,0,-0.0383,-0.0386,-0.0361,-0.0365,-0.0309,-0.0248,-0.0312,-0.0186,-0.0171,-0.0128,-0.0096,-0.0093,-0.0017,-0.0017,-0.0121,-0.0186,0,0,0,-0.0398,-0.0387,-0.0387,-0.0366,-0.0346,-0.0251,-0.0243,-0.0183,-0.0171,-0.0099,-0.0092,-0.0016,-0.0017,-0.0118,-0.0179,-0.0263,0,0,0,-0.0398,-0.0417,-0.0387,-0.0403,-0.0347,-0.0331,-0.0244,-0.0204,-0.0151,-0.0096,-0.0017,-0.0017,-0.0117,-0.0175,-0.0259,-0.0338,-0.0366,0,0,-0.0429,-0.0421,-0.0433,-0.0405,-0.042,-0.0339,-0.0332,-0.0223,-0.0146,-0.005,-0.0048,-0.0122,-0.0179,-0.0262,-0.0385,-0.0412,0,0,0,-0.0447,-0.0459,-0.0456,-0.0455,-0.0429,-0.0405,-0.0306,-0.0259,-0.0176,-0.0124,-0.0108,-0.0141,-0.0191,-0.0227,-0.0249,0.0172,-0.0021,-0.0021,-0.0021,-0.0482,-0.0485,-0.0513,-0.0512,-0.0499,-0.0437,-0.0413,-0.0328,-0.0231,-0.0218,-0.0217,-0.0341,-0.038,-0.0397,0.0039,-0.0194,-0.0195,-0.0195,-0.0195,-0.054,-0.0562,-0.0567,-0.0599,-0.0579,-0.0563,-0.0492,-0.0436,-0.0405,-0.03,-0.0343,-0.0325,-0.0427,0.0047,-0.0202,-0.0201,-0.02,-0.0199,-0.0199,-0.0568,-0.0583,-0.0609,-0.0657,-0.0681,-0.0642,-0.068,-0.0598,-0.0518,-0.055,-0.0577,-0.0576,-0.0171,-0.0565,-0.0566,-0.0567,-0.0567,-0.0568,-0.0568,-0.058,-0.0611,-0.0665,-0.0716,-0.0755,-0.0794,-0.0784,-0.0805,-0.079,-0.0716,-0.0716,-0.0157,-0.0454,-0.0453,-0.0578,-0.0577,-0.0575,-0.0574,-0.0574,-0.061,-0.0621,-0.0709,-0.0763,-0.0874,-0.0988,-0.0987,-0.109,-0.1089,-0.1127,-0.0392,-0.0804,-0.0785,-0.0766,-0.0772,-0.0973,-0.0973,-0.0973,-0.0973,-0.0616,-0.0632,-0.0745,-0.0847,-0.0976,-0.1071,-0.1295,-0.1299,-0.087,-0.049,-0.0311,-0.0158,-0.0161,-0.009,-0.0087,-0.0072,-0.009,-0.0088,-0.0086,-0.0628,-0.0667,-0.0748,-0.0861,-0.102,-0.1192,-0.1424,-0.132,-0.0456,0.0003,0.0298,0.026,0.0548,0.0509,0.067,0.0641,0.0682,0,0]}],[{"header":{"parameterUnit":"m.s-1","parameterCategory":2,"la1":30.2992,"la2":30.254,"lo1":-89.0895,"lo2":-89.0443,"dy":0.0025,"dx":0.0025,"nx":19,"ny":19,"refTime":"2026-05-21T03:00:00:Z","depth":"2","parameterNumber":2,"parameterNumberName":"U-component_of_CURRENTS"},"data":[0,0,0,-0.1975,-0.1977,-0.2038,-0.2038,-0.199,-0.199,0,0,0,0,0,0,0,0,0,0,0,-0.1936,-0.1936,-0.1975,-0.1977,-0.2038,-0.2038,-0.1991,-0.199,0,0,0,0,0,0,0,0,0,0,0,-0.1936,-0.1936,-0.1936,-0.1977,-0.2038,-0.2038,-0.1991,-0.1973,0,0,0,0,0,0,0,0,0,0,-0.1928,-0.1902,-0.1936,-0.1936,-0.1978,-0.2038,-0.2038,-0.1973,-0.1974,-0.1931,0,-0.194,0,-0.1975,-0.1985,-0.1985,0,0,0,-0.1964,-0.1902,-0.1936,-0.1936,-0.1978,-0.2037,-0.2006,-0.1974,-0.1975,-0.1931,-0.194,-0.194,-0.1974,-0.1984,-0.1984,-0.1947,-0.1947,0,0,-0.1961,-0.1927,-0.1935,-0.1936,-0.1991,-0.2005,-0.2009,-0.1976,-0.1961,-0.194,-0.194,-0.1973,-0.1984,-0.1983,-0.1947,-0.1947,0,0,0,-0.196,-0.1924,-0.1961,-0.1936,-0.1964,-0.2007,-0.2011,-0.1962,-0.198,-0.194,-0.1973,-0.1984,-0.1983,-0.1947,-0.1947,-0.2005,0,0,0,-0.1957,-0.1926,-0.1959,-0.1937,-0.1965,-0.1979,-0.1998,-0.1982,-0.198,-0.1973,-0.1984,-0.1982,-0.1947,-0.1947,-0.2003,-0.201,0,0,0,-0.1933,-0.1923,-0.1934,-0.1936,-0.1973,-0.1981,-0.1996,-0.1983,-0.2,-0.1985,-0.1982,-0.1947,-0.1947,-0.2001,-0.2007,-0.203,0,0,0,-0.1893,-0.1907,-0.1932,-0.1958,-0.1973,-0.2027,-0.1997,-0.2016,-0.2007,-0.1983,-0.1947,-0.1947,-0.2001,-0.2006,-0.2028,-0.1995,-0.2,0,0,-0.1895,-0.1906,-0.1927,-0.1953,-0.2016,-0.2018,-0.2057,-0.2029,-0.1994,-0.1945,-0.1946,-0.2003,-0.2007,-0.2029,-0.2014,-0.2018,0,0,0,-0.1919,-0.1931,-0.1953,-0.1995,-0.2039,-0.2073,-0.2063,-0.2049,-0.2022,-0.1994,-0.1994,-0.1993,-0.2006,-0.1983,-0.1986,-0.1948,-0.1948,-0.1948,-0.1948,-0.1856,-0.1917,-0.1959,-0.2029,-0.2061,-0.2103,-0.2115,-0.2089,-0.2048,-0.2043,-0.2034,-0.2079,-0.2054,-0.2056,-0.2036,-0.2036,-0.2036,-0.2036,-0.2036,-0.1864,-0.1893,-0.1968,-0.2023,-0.208,-0.2106,-0.2141,-0.213,-0.2112,-0.2072,-0.2083,-0.2036,-0.2064,-0.2041,-0.204,-0.2039,-0.2039,-0.2039,-0.2038,-0.1813,-0.1842,-0.1885,-0.1973,-0.2038,-0.2098,-0.2136,-0.2147,-0.2146,-0.2161,-0.2115,-0.2114,-0.211,-0.2163,-0.2163,-0.2163,-0.2163,-0.2163,-0.2163,-0.1736,-0.1798,-0.1816,-0.1918,-0.1958,-0.2021,-0.2107,-0.2134,-0.2165,-0.2157,-0.2157,-0.212,-0.2116,-0.2116,-0.2166,-0.2165,-0.2165,-0.2165,-0.2165,-0.1682,-0.169,-0.1726,-0.1757,-0.1861,-0.1872,-0.2005,-0.2078,-0.2132,-0.2147,-0.2159,-0.2158,-0.2131,-0.2127,-0.2126,-0.2175,-0.2175,-0.2175,-0.2175,-0.1607,-0.163,-0.1631,-0.1665,-0.172,-0.1795,-0.1821,-0.1887,-0.1969,-0.193,-0.1939,-0.1892,-0.1899,-0.1854,-0.1856,-0.1848,-0.1824,-0.1823,-0.1822,-0.1557,-0.1572,-0.1536,-0.1584,-0.1642,-0.1678,-0.1674,-0.1588,-0.1507,-0.1799,-0.1787,-0.2169,-0.2127,-0.2126,-0.2078,-0.2074,-0.2068,0,0]},{"header":{"parameterUnit":"m.s-1","parameterCategory":2,"la1":30.2992,"la2":30.254,"lo1":-89.0895,"lo2":-89.0443,"dy":0.0025,"dx":0.0025,"nx":19,"ny":19,"refTime":"2026-05-21T03:00:00:Z","depth":"2","parameterNumber":3,"parameterNumberName":"V-component_of_CURRENTS"},"data":[0,0,0,-0.0015,-0.0014,0.0069,0.0069,0.0259,0.026,0,0,0,0,0,0,0,0,0,0,0,-0.006,-0.0061,-0.0015,-0.0014,0.0068,0.0069,0.0258,0.026,0,0,0,0,0,0,0,0,0,0,0,-0.006,-0.0061,-0.0061,-0.0014,0.0068,0.0069,0.0258,0.0183,0,0,0,0,0,0,0,0,0,0,0.0096,0.0026,-0.006,-0.0061,-0.0014,0.0068,0.0069,0.0179,0.0188,0.0234,0,0.0207,0,0.0232,0.0272,0.0272,0,0,0,0.002,0.0018,0.004,-0.0062,-0.0014,0.0068,0.0041,0.0183,0.0194,0.0246,0.021,0.0217,0.0235,0.0273,0.0274,0.0398,0.0398,0,0,0.0015,-0.0029,0.0032,0.0044,-0.0042,0.0038,0.0043,0.0189,0.0181,0.0211,0.0222,0.0238,0.0274,0.0275,0.0398,0.0398,0,0,0,-0.0021,-0.0033,-0.0015,0.0037,0.0041,0.0039,0.0045,0.0175,0.0178,0.0224,0.0241,0.0275,0.0277,0.0398,0.0398,0.0282,0,0,0,-0.0022,-0.0055,-0.0019,-0.0041,0.0036,0.0097,0.0027,0.0168,0.0185,0.024,0.0275,0.0279,0.0398,0.0398,0.0284,0.0223,0,0,0,-0.0055,-0.0057,-0.0065,-0.0044,-0.0021,0.0095,0.0108,0.0172,0.0195,0.0272,0.0279,0.0398,0.0398,0.0287,0.0229,0.0176,0,0,0,-0.0076,-0.0129,-0.0067,-0.0108,-0.0023,0.003,0.0108,0.0153,0.0207,0.0276,0.0398,0.0398,0.0288,0.0232,0.0179,0.0188,0.0171,0,0,-0.0152,-0.0139,-0.0158,-0.0101,-0.0096,0.0024,0.0069,0.0159,0.0235,0.0362,0.0364,0.0284,0.0229,0.0177,0.0198,0.0181,0,0,0,-0.0186,-0.0213,-0.0195,-0.0183,-0.0107,-0.0016,0.0088,0.0153,0.0243,0.0263,0.032,0.029,0.026,0.0274,0.0262,0.0399,0.0399,0.0399,0.0399,-0.0323,-0.0282,-0.0312,-0.0248,-0.0189,-0.0044,0.0031,0.0145,0.0212,0.0232,0.0223,0.014,0.0157,0.0147,0.0262,0.0261,0.0261,0.0261,0.026,-0.0437,-0.0454,-0.0391,-0.0416,-0.0292,-0.0236,-0.0025,0.0034,0.011,0.0181,0.0157,0.0186,0.0125,0.0252,0.0253,0.0255,0.0255,0.0256,0.0257,-0.0513,-0.0521,-0.0547,-0.0555,-0.0511,-0.0361,-0.0283,-0.0135,-0.0021,-0.0027,-0.0009,-0.0006,0.0043,-0.0061,-0.0062,-0.0062,-0.0063,-0.0063,-0.0064,-0.0582,-0.0602,-0.0678,-0.0682,-0.0693,-0.0624,-0.0446,-0.0374,-0.0245,-0.0134,-0.0132,0.0032,0.0043,0.0027,-0.0071,-0.007,-0.0069,-0.0068,-0.0068,-0.0673,-0.0689,-0.0794,-0.0842,-0.0855,-0.0815,-0.0658,-0.052,-0.045,-0.0403,-0.0167,-0.0162,-0.0124,-0.0111,-0.0128,-0.0261,-0.0261,-0.0261,-0.0261,-0.0728,-0.0743,-0.0884,-0.0956,-0.0968,-0.0884,-0.0811,-0.0512,-0.0282,-0.004,-0.0048,0.005,0.005,0.0106,0.0114,0.0106,0.0033,0.0034,0.0035,-0.0784,-0.0821,-0.0924,-0.1003,-0.102,-0.0961,-0.0852,-0.0427,0.0096,0.0058,0.0118,-0.0264,-0.0141,-0.0131,-0.0057,-0.004,-0.0058,0,0]}],[{"header":{"parameterUnit":"m.s-1","parameterCategory":2,"la1":30.2992,"la2":30.254,"lo1":-89.0895,"lo2":-89.0443,"dy":0.0025,"dx":0.0025,"nx":19,"ny":19,"refTime":"2026-05-21T03:00:00:Z","depth":"4","parameterNumber":2,"parameterNumberName":"U-component_of_CURRENTS"},"data":[0,0,0,-0.0919,-0.0921,-0.1045,-0.1046,-0.1222,-0.1224,0,0,0,0,0,0,0,0,0,0,0,-0.0872,-0.0872,-0.0919,-0.0921,-0.1045,-0.1046,-0.1222,-0.1224,0,0,0,0,0,0,0,0,0,0,0,-0.0872,-0.0872,-0.0872,-0.0922,-0.1045,-0.1046,-0.1222,-0.1129,0,0,0,0,0,0,0,0,0,0,-0.1009,-0.0963,-0.0872,-0.0872,-0.0922,-0.1045,-0.1046,-0.1125,-0.1135,-0.1163,0,-0.1165,0,-0.1191,-0.1234,-0.1234,0,0,0,-0.0944,-0.0955,-0.0975,-0.0872,-0.0923,-0.1045,-0.0996,-0.1131,-0.1142,-0.1177,-0.1167,-0.1174,-0.1193,-0.1235,-0.1235,-0.1364,-0.1364,0,0,-0.0938,-0.0915,-0.0967,-0.0982,-0.0933,-0.0992,-0.0999,-0.1138,-0.1148,-0.1168,-0.1178,-0.1196,-0.1236,-0.1237,-0.1363,-0.1364,0,0,0,-0.0902,-0.091,-0.0928,-0.0974,-0.0991,-0.0995,-0.1004,-0.1142,-0.1143,-0.118,-0.1198,-0.1236,-0.1238,-0.1363,-0.1363,-0.1388,0,0,0,-0.0899,-0.0888,-0.0924,-0.0915,-0.0988,-0.1068,-0.1005,-0.1134,-0.1151,-0.1198,-0.1237,-0.124,-0.1363,-0.1363,-0.1387,-0.1387,0,0,0,-0.087,-0.0886,-0.0889,-0.0913,-0.0955,-0.1066,-0.1078,-0.1139,-0.1161,-0.1234,-0.124,-0.1362,-0.1363,-0.1386,-0.1386,-0.1389,0,0,0,-0.0859,-0.0858,-0.0888,-0.0907,-0.0954,-0.1051,-0.1077,-0.1167,-0.1231,-0.1237,-0.1363,-0.1363,-0.1385,-0.1385,-0.1388,-0.1221,0,0,0,-0.0849,-0.0857,-0.087,-0.09,-0.0971,-0.1037,-0.1136,-0.1222,-0.1248,-0.1322,-0.1325,-0.1387,-0.1386,-0.1388,-0.1262,0,0,0,0,-0.0863,-0.0866,-0.0894,-0.0945,-0.1026,-0.1115,-0.1208,-0.1247,-0.1326,-0.1283,-0.1394,-0.1392,-0.1393,-0.1294,-0.1367,-0.1367,-0.1366,-0.1366,-0.1366,-0.0811,-0.0865,-0.0914,-0.0989,-0.1054,-0.1188,-0.1255,-0.1325,-0.1358,-0.1387,-0.1418,-0.1443,-0.134,-0.1429,-0.1429,-0.1429,-0.143,-0.143,-0.143,-0.0772,-0.0799,-0.0906,-0.0973,-0.1098,-0.1196,-0.1315,-0.1356,-0.1437,-0.1445,-0.1445,-0.1334,-0.1432,-0.1432,-0.1431,-0.1431,-0.1431,-0.1431,-0.1431,-0.0691,-0.0729,-0.08,-0.0908,-0.105,-0.1183,-0.1279,-0.1378,-0.1442,-0.147,-0.136,-0.1454,-0.1445,-0.1477,-0.1477,-0.1477,-0.1477,-0.1477,-0.1477,-0.0587,-0.0671,-0.0723,-0.083,-0.0928,-0.1053,-0.1251,-0.1311,-0.1402,-0.1362,-0.1479,-0.1459,-0.1457,-0.1447,-0.1478,-0.1477,-0.1477,-0.1477,-0.1477,-0.0488,-0.0536,-0.0585,-0.0665,-0.0827,-0.0903,-0.1101,-0.1213,-0.1246,-0.1234,-0.1296,-0.1305,-0.1275,-0.1278,-0.1261,-0.1237,-0.1235,-0.1233,0,-0.0427,-0.0442,-0.0515,-0.0575,-0.0653,-0.0817,-0.0886,-0.0994,-0.1094,-0.1061,-0.1219,-0.1284,-0.1291,-0.1254,-0.1253,-0.1229,0,0,0,-0.0386,-0.0428,-0.0419,-0.0477,-0.0574,-0.0732,-0.0901,-0.0915,-0.1077,-0.1084,-0.1181,-0.1194,-0.1345,-0.1479,-0.1454,-0.1452,-0.1435,0,0]},{"header":{"parameterUnit":"m.s-1","parameterCategory":2,"la1":30.2992,"la2":30.254,"lo1":-89.0895,"lo2":-89.0443,"dy":0.0025,"dx":0.0025,"nx":19,"ny":19,"refTime":"2026-05-21T03:00:00:Z","depth":"4","parameterNumber":3,"parameterNumberName":"V-component_of_CURRENTS"},"data":[0,0,0,0.0047,0.0045,0.0009,0.001,0.0054,0.0054,0,0,0,0,0,0,0,0,0,0,0,0.0063,0.0063,0.0047,0.0045,0.0009,0.001,0.0054,0.0054,0,0,0,0,0,0,0,0,0,0,0,0.0063,0.0063,0.0062,0.0045,0.0009,0.001,0.0054,0.0063,0,0,0,0,0,0,0,0,0,0,0.0088,0.0091,0.0063,0.0062,0.0044,0.0009,0.001,0.0062,0.0062,0.009,0,0.0071,0,0.0056,0.0058,0.0058,0,0,0,0.0063,0.0091,0.007,0.0062,0.0044,0.0009,0.0031,0.0062,0.0062,0.0091,0.0072,0.0073,0.0057,0.0058,0.0058,0.0074,0.0074,0,0,0.0065,0.0074,0.0069,0.0069,0.0019,0.0031,0.0029,0.0061,0.0063,0.0072,0.0073,0.0058,0.0059,0.0059,0.0075,0.0074,0,0,0,0.0058,0.0075,0.0052,0.0068,0.005,0.003,0.0027,0.0062,0.005,0.0073,0.0058,0.0059,0.0059,0.0075,0.0074,0.0052,0,0,0,0.006,0.007,0.0053,0.0061,0.0048,0.0044,0.0029,0.0048,0.0051,0.0058,0.0059,0.006,0.0075,0.0075,0.0053,0.0046,0,0,0,0.0068,0.0071,0.0059,0.0061,0.0035,0.0043,0.0034,0.0048,0.0041,0.0058,0.006,0.0075,0.0075,0.0054,0.0048,0.0135,0,0,0,0.0091,0.0036,0.0059,-0.0005,0.0035,-0.0014,0.0033,0.0015,0.0022,0.0059,0.0075,0.0074,0.0054,0.0049,0.0134,0.0135,0,0,0,0.0025,0.0029,-0.0013,0.0005,-0.0074,-0.0006,-0.0034,-0.0,0.003,0.0075,0.0075,0.0053,0.0048,0.0134,0.0105,0,0,0,0,-0.0032,-0.0063,-0.0084,-0.0119,-0.013,-0.0102,-0.0062,-0.0019,0.0024,0.0028,0.0049,0.0047,0.0103,0.01,0.0072,0.0072,0.0072,0.0072,0.0072,-0.008,-0.0111,-0.018,-0.0207,-0.0216,-0.0159,-0.0113,-0.004,-0.0012,0.001,0.0025,0.0068,0.0059,0.0021,0.002,0.002,0.002,0.002,0.002,-0.0183,-0.0223,-0.0241,-0.0322,-0.028,-0.0271,-0.0156,-0.0098,0.0024,0.0011,0.0068,0.0068,0.0018,0.0018,0.0019,0.0019,0.0019,0.0019,0.0019,-0.0205,-0.0231,-0.0286,-0.0374,-0.0375,-0.0324,-0.0232,-0.0135,-0.0009,0.0047,0.0114,0.0085,0.0097,0.0098,0.0098,0.0099,0.0099,0.0099,0.01,-0.0197,-0.0257,-0.0347,-0.0419,-0.0441,-0.0414,-0.0266,-0.0141,-0.0004,0.01,0.0062,0.0096,0.0094,0.0103,0.0105,0.0104,0.0103,0.0103,0.0102,-0.0235,-0.0259,-0.0389,-0.0443,-0.0493,-0.0447,-0.0336,-0.0071,0.0083,0.0222,0.0162,0.0158,0.0188,0.0184,0.0197,0.0227,0.0227,0.0227,0,-0.0234,-0.0265,-0.0414,-0.0485,-0.0499,-0.0452,-0.0247,-0.0085,0.0104,0.0084,0.0083,0.0002,0.0003,0.002,0.0018,0.0024,0,0,0,-0.0257,-0.0301,-0.0382,-0.0473,-0.0485,-0.0306,-0.019,-0.0089,0.0037,0.0227,0.023,0.0229,0.012,0.012,0.0157,0.0154,0.0173,0,0]}]]